Tracking 22130 objects as of 21-Jan-2021
HD Live streaming from Space Station
objects crossing your sky now

STTW-T1

Track STTW-T1 now!
10-day predictions
STTW-T1 is classified as:


NORAD ID: 14670
Int'l Code: 1984-008A
Perigee: 473.1 km
Apogee: 6,330.5 km
Inclination: 36.1 °
Period: 160.2 minutes
Semi major axis: 9772 km
RCS: 3.9341 m2 (large)
Launch date: January 29, 1984
Source: People's Republic of China (PRC)
Launch site: Xichang Space Center, China (XSC)
aabbcc
Your satellite tracking list
Your tracking list is empty




NASA's NSSDC Master Catalog

Two Line Element Set (TLE):
1 14670U 84008A   21020.96736916  .00000001  00000-0  19860-4 0  9999
2 14670  36.1256   6.7131 2996788 100.0809 294.6391  8.98615983206197
Source of the keplerian elements: AFSPC